Terug naar catalogus

STARLINK-4620

ActiefCommunicatieSSO
NORAD 53674·PAYLOAD·🇺🇸 United States

Gelanceerd Aug 31, 2022 vanaf Vandenberg Space Force Base

Loading…

Volgende Passages (komende 24 uur)

TLE

VersSource: CelesTrak SupGP

Epoch: Sep 15, 2026, 01:51 UTC

1 53674C 22105AC  26258.07756944  .00066824  00000+0  46386-2 0  2582
2 53674  97.2843 132.1585 0001958  88.1952  48.9902 15.05631640    15

Volg STARLINK-4620 in realtime met AllMySat

Download on the App Store